Location: College Park
(38.9810°N, 76.9370°W)
Time: 02:43:41
(UTC-04:00)

Hubble Space Telescope - Pass Details

Date: 08 January 2018
Orbit: 537 x 541 km, 28.5° (Epoch: 21 July)

Event Time Altitude Azimuth Distance (km) Brightness Sun altitude
Exits shadow 04:32:00 12° 136° (SE) 1,687 3.8 -33.3°
Drops below altitude 10° 04:32:22 10° 131° (SE) 1,786 4.0 -33.2°
Sets 04:35:09 0° 113° (ESE) 2,676 5.3 -32.7°
